Theta_e
320 318 317 313 309 306 305 303 302 300 301 305 308 310 312 314 314 312 312 311 312 314 314 313 314 313 312 314 316 316 318 319 321 326 329 333 336 336
313 311 310 308 307 306 305 304 304 303 302 304 307 309 309 311 312 309 309 307 307 308 310 310 311 311 310 311 312 314 317 317 318 320 324 328 332 333
313 311 310 309 307 306 307 306 305 306 304 305 307 308 308 308 307 307 306 306 305 306 308 308 308 308 309 309 310 312 315 315 316 317 318 322 328 330
312 311 311 310 307 307 306 305 305 306 306 305 303 304 307 307 306 305 304 304 303 305 306 306 306 307 308 309 309 311 314 313 313 315 317 317 321 328
314 312 310 308 306 306 305 304 303 302 302 302 300 301 302 304 304 304 303 303 303 303 304 304 305 306 308 308 308 312 310 309 309 311 313 317 320 325
315 313 310 308 307 305 304 302 300 299 300 300 300 299 300 301 302 300 300 300 300 301 303 303 304 306 309 308 312 313 310 308 307 308 308 309 311 315
314 312 309 310 310 306 303 300 300 299 299 298 297 297 298 299 300 300 298 297 300 300 300 303 304 306 310 311 313 312 309 308 307 307 307 306 306 309
310 310 308 311 309 308 306 304 303 301 299 298 297 298 298 299 300 299 297 296 295 301 299 301 303 304 305 313 308 307 307 308 307 307 307 306 305 305
309 309 309 309 307 306 306 306 305 304 303 301 300 299 299 300 300 298 298 297 296 299 298 299 303 302 304 307 308 306 304 304 306 306 305 305 304 303
309 309 307 305 305 306 305 304 304 305 305 302 303 302 302 301 300 300 299 298 297 298 300 297 303 299 304 306 307 306 304 303 303 304 304 304 303 302
304 302 301 300 301 301 305 302 300 299 301 301 300 298 297 297 299 298 296 295 295 297 300 300 300 299 303 303 308 303 303 302 302 303 303 303 302 301
297 297 297 296 296 297 299 298 296 295 296 296 295 296 296 297 296 299 297 295 295 296 301 298 298 298 296 303 303 304 306 303 301 302 303 302 302 306
294 293 294 295 294 294 295 296 294 294 294 294 294 296 297 298 299 299 298 297 297 296 301 300 299 299 298 298 301 303 304 306 308 308 302 301 301 302
292 292 293 293 293 293 294 293 293 294 293 293 294 295 295 297 298 299 300 300 300 299 302 303 299 298 296 295 296 302 305 306 307 307 309 304 301 300
292 292 292 292 292 293 293 294 294 294 294 294 294 295 296 298 299 299 300 301 302 302 303 304 301 300 297 295 296 299 299 304 307 306 307 308 306 307
291 293 293 293 294 295 295 295 295 296 296 295 294 295 297 296 295 297 296 297 297 298 302 303 302 300 297 298 300 299 301 300 306 307 307 306 307 309
291 293 293 294 294 294 294 295 295 294 293 294 293 293 293 294 294 296 296 296 295 295 296 299 301 301 300 300 298 301 301 302 304 305 306 303 307 309
291 290 290 291 291 292 292 292 293 293 294 294 293 293 292 292 293 294 295 294 294 295 296 297 297 297 301 304 304 303 305 303 305 305 304 303 305 312
288 288 289 289 290 290 291 291 291 292 293 293 293 292 292 292 292 292 293 293 293 294 295 296 296 296 294 294 302 302 302 302 303 304 305 304 306 304
287 287 288 289 289 289 290 290 291 291 291 291 291 292 292 291 291 291 292 292 293 294 294 295 296 297 295 294 295 300 297 300 301 302 304 299 295 296
286 286 288 288 289 289 289 290 290 290 290 290 290 291 291 291 290 291 292 288 289 293 292 293 296 289 299 301 298 298 303 297 299 300 303 301 299 298
286 286 286 287 288 289 289 289 289 289 289 289 289 289 290 291 291 291 292 291 292 293 292 295 298 298 300 300 297 298 301 302 299 298 296 298 302 299
284 285 286 286 287 287 287 288 289 288 289 289 288 288 289 288 290 291 291 292 292 293 293 294 297 298 298 299 295 301 301 302 301 297 294 296 298 298
Wind_Speed
10 11 9 9 10 7 3 3 5 5 7 3 3 2 2 4 8 6 6 11 11 11 12 12 11 11 12 12 12 12 15 15 16 15 14 13 8 9
6 7 5 3 6 3 3 3 2 3 3 4 3 2 3 3 6 5 6 8 10 10 12 10 10 10 12 12 12 11 11 14 15 14 14 12 10 8
10 9 6 8 5 5 1 1 2 2 3 2 2 2 3 3 3 4 5 5 6 13 12 11 12 12 12 12 13 11 10 12 12 15 14 15 12 10
17 19 20 10 12 10 8 10 6 4 3 4 2 2 1 2 2 3 4 5 7 10 12 14 13 14 12 12 11 10 9 11 11 13 15 14 13 11
18 16 13 16 15 12 11 10 7 5 4 3 3 1 1 2 2 3 3 5 5 5 13 13 13 14 12 10 9 7 7 9 10 11 13 11 11 12
16 15 14 15 16 14 10 8 8 8 6 4 2 2 1 2 2 1 4 4 7 4 10 8 10 12 10 8 5 7 7 7 8 9 10 11 8 8
17 16 15 17 19 16 9 8 8 5 6 5 3 2 2 1 1 1 2 4 5 2 8 7 5 5 5 6 7 8 8 8 8 9 9 9 10 8
16 14 14 19 17 17 14 16 12 9 6 5 3 3 2 2 2 1 1 2 4 1 5 9 4 6 7 4 9 10 9 7 8 8 6 6 6 6
18 15 14 11 15 11 15 14 11 10 9 6 5 3 4 5 4 2 2 2 3 5 3 4 3 6 7 5 6 8 10 10 7 5 5 4 3 2
17 17 14 14 13 14 12 10 8 6 7 5 5 5 3 4 3 2 2 3 5 6 4 3 1 6 6 6 3 6 7 9 9 6 5 4 3 3
14 17 13 11 14 17 12 11 10 9 12 12 10 8 6 4 4 2 6 6 5 3 4 3 1 4 4 4 3 8 8 9 9 9 7 6 4 4
14 18 23 17 21 17 11 9 9 6 5 4 3 3 2 1 3 5 5 6 4 3 2 3 3 4 5 2 5 6 8 10 10 8 8 8 7 4
13 11 9 21 20 16 13 7 7 5 4 4 3 3 2 2 2 3 4 5 4 5 3 3 2 1 2 8 4 7 7 7 8 7 8 9 8 7
10 8 9 16 15 14 10 11 11 8 4 3 3 2 1 1 1 2 4 5 5 9 8 6 4 4 4 4 8 6 7 8 6 6 5 4 7 10
8 9 12 11 12 11 11 10 11 6 4 4 3 3 1 1 2 3 3 5 5 6 6 6 5 7 5 6 8 9 7 6 7 6 5 5 5 4
9 9 9 9 9 9 9 8 5 5 4 3 2 1 0 1 2 2 3 4 4 3 4 4 5 5 6 8 8 11 8 5 6 6 6 5 5 6
7 8 8 8 9 7 6 5 4 3 3 2 2 1 1 1 1 1 2 3 3 3 5 5 5 6 8 11 9 9 9 7 7 7 5 6 5 5
8 8 8 8 7 5 4 4 4 3 2 1 1 0 1 2 3 4 3 4 4 4 4 5 6 6 4 5 13 7 6 4 4 4 3 3 4 3
8 7 7 7 6 5 4 4 3 3 3 2 1 1 1 2 2 4 4 4 4 5 6 5 4 4 5 6 4 12 6 7 7 6 4 4 3 1
7 7 6 5 5 4 4 3 3 3 3 2 2 2 1 1 2 3 3 4 5 5 6 4 4 4 5 4 4 7 7 7 4 6 2 2 1 1
8 7 7 6 5 4 3 3 3 3 3 3 3 3 3 3 3 4 4 5 4 5 6 5 5 7 7 5 4 5 2 1 4 4 1 2 2 2
6 6 6 5 5 5 4 4 3 3 3 2 2 3 4 4 5 4 4 5 5 5 6 5 7 6 5 5 6 7 5 2 3 11 17 6 1 2
8 7 6 6 6 7 6 5 2 4 5 4 3 4 3 4 5 4 5 5 5 6 5 5 5 5 5 5 5 7 7 5 2 3 6 17 10 11
Wind_Direction
186 189 183 164 135 240 203 167 157 183 221 198 179 138 71 64 60 51 45 29 23 18 13 5 355 348 345 338 340 343 341 344 339 333 328 325 287 252
137 136 105 28 122 157 201 178 151 147 209 172 198 146 62 90 56 46 25 23 8 3 2 346 340 335 330 324 325 326 327 332 333 327 314 295 283 273
140 142 171 153 173 121 195 110 170 145 151 168 191 137 144 119 68 41 22 6 343 357 358 346 338 331 327 325 321 322 322 329 330 324 314 290 263 255
171 173 184 168 145 169 178 195 192 166 156 174 145 140 152 79 70 62 14 352 347 357 351 341 340 329 328 320 322 315 323 327 329 325 324 290 274 243
179 180 180 165 162 176 190 180 154 146 127 149 138 156 104 45 18 26 353 341 336 347 351 343 337 332 337 342 332 324 357 333 325 327 334 299 264 241
176 169 168 173 172 173 176 163 146 134 126 125 121 125 90 69 71 5 346 334 326 338 340 342 334 340 354 12 358 28 356 351 343 345 4 11 42 92
170 172 164 173 176 162 156 152 145 126 130 133 126 156 118 80 345 68 295 322 319 348 335 339 339 353 357 2 14 11 0 3 3 2 16 23 33 56
163 161 152 161 153 148 152 153 152 140 145 137 137 143 162 188 185 200 276 341 343 106 337 320 340 346 354 346 9 6 358 354 5 358 13 40 55 52
150 156 148 143 139 142 148 150 144 132 136 132 138 166 175 199 163 201 209 243 264 294 305 287 321 333 334 324 352 13 15 349 345 343 342 350 2 355
142 139 135 136 139 141 139 137 127 110 117 128 137 150 175 169 172 201 266 270 259 258 216 262 274 327 309 308 252 349 351 340 320 298 278 278 269 270
117 111 110 107 127 128 129 123 115 112 91 101 107 110 125 176 210 220 252 267 278 250 214 241 278 304 284 296 335 348 326 312 294 282 272 272 272 270
94 94 103 108 95 97 106 116 130 111 126 119 108 98 112 241 283 221 245 248 269 269 213 274 314 345 315 279 328 323 319 306 295 273 264 252 249 247
108 107 100 99 100 104 113 114 96 112 95 115 130 139 143 152 191 196 215 229 231 251 239 263 270 274 254 309 327 317 301 305 302 289 246 247 244 234
65 83 100 104 108 108 100 117 125 123 127 129 134 142 187 159 291 297 260 246 248 259 281 273 267 254 270 286 297 303 297 290 287 289 284 267 260 244
56 74 85 90 98 96 122 124 127 134 154 148 165 161 180 271 338 296 278 282 277 267 259 255 249 273 256 270 281 285 305 302 288 274 267 249 252 237
55 57 69 79 78 96 110 124 125 145 145 144 134 93 291 348 3 352 306 306 301 304 304 286 282 253 269 265 271 278 275 270 296 281 275 259 238 236
52 59 57 69 81 81 86 103 116 115 127 135 136 117 58 325 323 320 289 300 290 309 306 315 320 280 265 266 276 264 277 268 260 276 268 266 236 239
51 54 59 60 61 59 65 75 82 79 78 115 109 90 324 328 329 322 309 311 304 300 297 312 319 325 311 281 223 273 285 273 266 265 244 259 268 247
38 40 51 52 49 42 38 48 46 29 30 37 36 26 355 323 303 309 320 314 299 301 302 311 308 314 320 316 289 219 277 296 290 283 228 228 260 66
28 30 37 34 32 20 8 11 4 9 14 1 5 2 11 315 303 299 303 301 293 306 306 306 312 320 304 304 310 290 245 275 288 278 225 97 31 126
10 9 11 12 2 348 352 352 344 344 341 353 350 344 341 323 304 291 291 287 288 280 289 303 304 283 283 278 246 271 244 34 36 312 225 188 185 157
355 355 351 350 344 332 327 317 320 340 341 334 332 336 318 305 295 294 289 290 287 285 293 299 305 303 291 279 303 299 284 210 161 71 32 2 332 202
344 338 329 335 337 331 326 311 307 333 322 297 292 286 283 295 301 293 288 294 294 294 296 306 309 309 291 282 293 307 293 308 7 32 17 17 57 78